,,PA_Meas_PMT16A,,PR_Meas_QMR101_102,,RH_Meas_QMH101,,SR_Meas_QMS101,,TA_Meas_QMH101,,GenWind,,GenWind,
time,status,PA,status,PR,status,RH,status,SR,status,TA,status,DirAvg,status,SpdAvg,
2013-04-15, 00:00:04,VALID,917.899,VALID,0,VALID,96.0474,VALID,0,VALID,19.1929,VALID,126,VALID,0,
2013-04-15, 00:01:04,VALID,917.915,VALID,0,VALID,96.1389,VALID,0,VALID,19.1929,VALID,111,VALID,0,
2013-04-15, 00:02:04,VALID,917.899,VALID,0,VALID,96.1999,VALID,0,VALID,19.2124,VALID,111,VALID,0,
2013-04-15, 00:03:04,VALID,917.924,VALID,0,VALID,96.3142,VALID,0,VALID,19.3772,VALID,113,VALID,0,
2013-04-15, 00:04:04,VALID,917.906,VALID,0,VALID,96.36,VALID,0,VALID,19.2723,VALID,121,VALID,0,
2013-04-15, 00:05:04,VALID,917.885,VALID,0,VALID,96.4286,VALID,0,VALID,19.3787,VALID,111,VALID,0,
2013-04-15, 00:06:04,VALID,917.913,VALID,0,VALID,96.4133,VALID,0,VALID,19.2153,VALID,123,VALID,0,
2013-04-15, 00:07:04,VALID,917.907,VALID,0,VALID,96.4362,VALID,0,VALID,19.2363,VALID,138,VALID,0,
2013-04-15, 00:08:04,VALID,917.889,VALID,0,VALID,96.4743,VALID,0,VALID,19.2363,VALID,131,VALID,0,
2013-04-15, 00:09:04,VALID,917.859,VALID,0,VALID,96.5048,VALID,0,VALID,19.1749,VALID,107,VALID,0,
2013-04-15, 00:10:04,VALID,917.87,VALID,0,VALID,96.5124,VALID,0,VALID,19.1344,VALID,107,VALID,0,
2013-04-15, 00:11:04,VALID,917.869,VALID,0,VALID,96.5506,VALID,0,VALID,19.1149,VALID,107,VALID,0,
2013-04-15, 00:12:04,VALID,917.867,VALID,0,VALID,96.5887,VALID,0,VALID,19.1568,VALID,107,VALID,0,
2013-04-15, 00:13:04,VALID,917.867,VALID,0,VALID,96.6039,VALID,0,VALID,19.2002,VALID,107,VALID,0,
2013-04-15, 00:14:04,VALID,917.843,VALID,0,VALID,96.642,VALID,0,VALID,19.1373,VALID,107,VALID,0,
2013-04-15, 00:15:04,VALID,917.829,VALID,0,VALID,96.6954,VALID,0,VALID,19.2153,VALID,107,VALID,0,
2013-04-15, 00:16:04,VALID,917.827,VALID,0,VALID,96.642,VALID,0,VALID,19.1207,VALID,107,VALID,0,
2013-04-15, 00:17:04,VALID,917.809,VALID,0,VALID,96.6725,VALID,0,VALID,19.0579,VALID,107,VALID,0,
2013-04-15, 00:18:04,VALID,917.784,VALID,0,VALID,96.6954,VALID,0,VALID,19.1778,VALID,238,VALID,0,
2013-04-15, 00:19:04,VALID,917.736,VALID,0,VALID,96.7259,VALID,0,VALID,19.1749,VALID,238,VALID,0,
2013-04-15, 00:20:04,VALID,917.693,VALID,0,VALID,96.7716,VALID,0,VALID,19.2139,VALID,238,VALID,0,
2013-04-15, 00:21:04,VALID,917.692,VALID,0,VALID,96.7716,VALID,0,VALID,19.2139,VALID,238,VALID,0,
2013-04-15, 00:22:04,VALID,917.663,VALID,0,VALID,96.7793,VALID,0,VALID,19.2602,VALID,238,VALID,0,
2013-04-15, 00:23:04,VALID,917.686,VALID,0,VALID,96.764,VALID,0,VALID,19.1792,VALID,238,VALID,0,
2013-04-15, 00:24:04,VALID,917.68,VALID,0,VALID,96.7869,VALID,0,VALID,19.0745,VALID,238,VALID,0,
2013-04-15, 00:25:04,VALID,917.668,VALID,0,VALID,96.7945,VALID,0,VALID,19.1149,VALID,238,VALID,0,
2013-04-15, 00:26:04,VALID,917.661,VALID,0,VALID,96.8021,VALID,0,VALID,19.1568,VALID,238,VALID,0,
2013-04-15, 00:27:04,VALID,917.644,VALID,0,VALID,96.7411,VALID,0,VALID,19.0788,VALID,238,VALID,0,
2013-04-15, 00:28:04,VALID,917.652,VALID,0,VALID,96.6192,VALID,0,VALID,18.9214,VALID,238,VALID,0,
2013-04-15, 00:29:04,VALID,917.633,VALID,0,VALID,96.5811,VALID,0,VALID,18.9229,VALID,238,VALID,0,
2013-04-15, 00:30:04,VALID,917.61,VALID,0,VALID,96.5582,VALID,0,VALID,18.9662,VALID,238,VALID,0,
2013-04-15, 00:31:04,VALID,917.602,VALID,0,VALID,96.5506,VALID,0,VALID,18.9272,VALID,238,VALID,0,
2013-04-15, 00:32:04,VALID,917.615,VALID,0,VALID,96.4667,VALID,0,VALID,18.7655,VALID,238,VALID,0,
2013-04-15, 00:33:04,VALID,917.618,VALID,0,VALID,96.4591,VALID,0,VALID,18.746,VALID,238,VALID,0,
2013-04-15, 00:34:04,VALID,917.575,VALID,0,VALID,96.4743,VALID,0,VALID,18.6847,VALID,238,VALID,0,
2013-04-15, 00:35:04,VALID,917.589,VALID,0,VALID,96.5201,VALID,0,VALID,18.7056,VALID,238,VALID,0,
2013-04-15, 00:36:04,VALID,917.589,VALID,0,VALID,96.5277,VALID,0,VALID,18.7084,VALID,238,VALID,0,
2013-04-15, 00:37:04,VALID,917.59,VALID,0,VALID,96.642,VALID,0,VALID,18.7474,VALID,238,VALID,0,
2013-04-15, 00:38:04,VALID,917.603,VALID,0,VALID,96.7793,VALID,0,VALID,18.8824,VALID,238,VALID,0,
2013-04-15, 00:39:04,VALID,917.604,VALID,0,VALID,96.825,VALID,0,VALID,18.9604,VALID,238,VALID,0,
2013-04-15, 00:40:04,VALID,917.591,VALID,0,VALID,96.8174,VALID,0,VALID,19.0052,VALID,238,VALID,0,
2013-04-15, 00:41:04,VALID,917.617,VALID,0,VALID,96.703,VALID,0.107441,VALID,18.7488,VALID,238,VALID,0,
2013-04-15, 00:42:04,VALID,917.638,VALID,0,VALID,96.6878,VALID,0,VALID,18.7084,VALID,238,VALID,0,
2013-04-15, 00:43:04,VALID,917.672,VALID,0,VALID,96.703,VALID,0,VALID,18.7697,VALID,238,VALID,0,
2013-04-15, 00:44:04,VALID,917.678,VALID,0,VALID,96.7411,VALID,0,VALID,18.8297,VALID,238,VALID,0,
2013-04-15, 00:45:04,VALID,917.672,VALID,0,VALID,96.7793,VALID,0,VALID,18.7878,VALID,238,VALID,0,
2013-04-15, 00:46:04,VALID,917.689,VALID,0,VALID,96.8098,VALID,0,VALID,18.8896,VALID,238,VALID,0,
2013-04-15, 00:47:04,VALID,917.672,VALID,0,VALID,96.825,VALID,0,VALID,18.8867,VALID,238,VALID,0,
2013-04-15, 00:48:04,VALID,917.657,VALID,0,VALID,96.825,VALID,0,VALID,18.8687,VALID,238,VALID,0,
2013-04-15, 00:49:04,VALID,917.623,VALID,0,VALID,96.7945,VALID,0,VALID,18.8687,VALID,238,VALID,0,
2013-04-15, 00:50:04,VALID,917.579,VALID,0,VALID,96.7945,VALID,0,VALID,18.7669,VALID,238,VALID,0,
2013-04-15, 00:51:04,VALID,917.587,VALID,0,VALID,96.7411,VALID,0,VALID,18.6861,VALID,238,VALID,0,
2013-04-15, 00:52:04,VALID,917.553,VALID,0,VALID,96.6039,VALID,0,VALID,18.6903,VALID,238,VALID,0,
2013-04-15, 00:53:04,VALID,917.529,VALID,0,VALID,96.4972,VALID,0,VALID,18.6109,VALID,238,VALID,0,
2013-04-15, 00:54:04,VALID,917.521,VALID,0,VALID,96.4133,VALID,0,VALID,18.6124,VALID,238,VALID,0,
2013-04-15, 00:55:04,VALID,917.444,VALID,0,VALID,96.36,VALID,0,VALID,18.6138,VALID,238,VALID,0,
2013-04-15, 00:56:04,VALID,917.433,VALID,0,VALID,96.3219,VALID,0,VALID,18.6138,VALID,238,VALID,0,
2013-04-15, 00:57:04,VALID,917.427,VALID,0,VALID,96.3066,VALID,0,VALID,18.5929,VALID,238,VALID,0,
2013-04-15, 00:58:04,VALID,917.422,VALID,0,VALID,96.238,VALID,0,VALID,18.6556,VALID,238,VALID,0,
2013-04-15, 00:59:04,VALID,917.406,VALID,0,VALID,95.7882,VALID,0,VALID,18.5121,VALID,238,VALID,0,
2013-04-15, 01:00:04,VALID,917.397,VALID,0,VALID,95.7425,VALID,0,VALID,18.4536,VALID,238,VALID,0,
2013-04-15, 01:01:04,VALID,917.375,VALID,0,VALID,95.6815,VALID,0,VALID,18.5567,VALID,238,VALID,0,
2013-04-15, 01:02:04,VALID,917.375,VALID,0,VALID,95.9026,VALID,0,VALID,18.5957,VALID,238,VALID,0,
2013-04-15, 01:03:04,VALID,917.374,VALID,0,VALID,95.712,VALID,0,VALID,18.5525,VALID,238,VALID,0,
2013-04-15, 01:04:04,VALID,917.348,VALID,0,VALID,95.0716,VALID,0,VALID,18.5386,VALID,238,VALID,0,
2013-04-15, 01:05:04,VALID,917.31,VALID,0,VALID,95.5976,VALID,0,VALID,18.3756,VALID,238,VALID,0,
2013-04-15, 01:06:04,VALID,917.331,VALID,0,VALID,95.6891,VALID,0,VALID,18.4773,VALID,238,VALID,0,
2013-04-15, 01:07:04,VALID,917.352,VALID,0,VALID,95.4452,VALID,0,VALID,18.3965,VALID,26,VALID,0,
2013-04-15, 01:08:04,VALID,917.392,VALID,0,VALID,95.3003,VALID,0,VALID,18.4202,VALID,26,VALID,0,
2013-04-15, 01:09:04,VALID,917.372,VALID,0,VALID,95.1631,VALID,0,VALID,18.3575,VALID,26,VALID,0,
2013-04-15, 01:10:04,VALID,917.375,VALID,0,VALID,95.1097,VALID,0,VALID,18.4216,VALID,26,VALID,0,
2013-04-15, 01:11:04,VALID,917.389,VALID,0,VALID,94.9649,VALID,0,VALID,18.4188,VALID,26,VALID,0,
2013-04-15, 01:12:04,VALID,917.37,VALID,0,VALID,94.8353,VALID,0,VALID,18.3756,VALID,26,VALID,0,
2013-04-15, 01:13:04,VALID,917.368,VALID,0,VALID,94.5075,VALID,0,VALID,18.3575,VALID,26,VALID,0,
2013-04-15, 01:14:04,VALID,917.345,VALID,0,VALID,94.3931,VALID,0,VALID,18.4188,VALID,26,VALID,0,
2013-04-15, 01:15:04,VALID,917.296,VALID,0,VALID,94.3017,VALID,0,VALID,18.416,VALID,26,VALID,0,
2013-04-15, 01:16:04,VALID,917.289,VALID,0,VALID,94.0196,VALID,0,VALID,18.4745,VALID,26,VALID,0,
2013-04-15, 01:17:04,VALID,917.277,VALID,0,VALID,93.5927,VALID,0,VALID,18.5525,VALID,26,VALID,0,
2013-04-15, 01:18:04,VALID,917.251,VALID,0,VALID,93.0895,VALID,0,VALID,18.6333,VALID,26,VALID,0,
2013-04-15, 01:19:04,VALID,917.21,VALID,0,VALID,92.5635,VALID,0,VALID,18.6319,VALID,26,VALID,0,
2013-04-15, 01:20:04,VALID,917.208,VALID,0,VALID,92.0451,VALID,0,VALID,18.6109,VALID,26,VALID,0,
2013-04-15, 01:21:04,VALID,917.185,VALID,0,VALID,91.9841,VALID,0,VALID,18.6109,VALID,26,VALID,0,
2013-04-15, 01:22:04,VALID,917.142,VALID,0,VALID,91.7326,VALID,0,VALID,18.6528,VALID,25,VALID,0,
2013-04-15, 01:23:04,VALID,917.129,VALID,0,VALID,91.0541,VALID,0,VALID,18.6304,VALID,18,VALID,0,
2013-04-15, 01:24:04,VALID,917.106,VALID,0,VALID,90.7796,VALID,0,VALID,18.6708,VALID,18,VALID,0,
2013-04-15, 01:25:04,VALID,917.051,VALID,0,VALID,90.5128,VALID,0,VALID,18.7308,VALID,18,VALID,0,
2013-04-15, 01:26:04,VALID,916.995,VALID,0,VALID,90.1164,VALID,0,VALID,18.7084,VALID,18,VALID,0,
2013-04-15, 01:27:04,VALID,916.991,VALID,0,VALID,89.8725,VALID,0,VALID,18.7697,VALID,18,VALID,0,
2013-04-15, 01:28:04,VALID,916.974,VALID,0,VALID,89.8648,VALID,0,VALID,18.8087,VALID,18,VALID,0,
2013-04-15, 01:29:04,VALID,916.976,VALID,0,VALID,89.5828,VALID,0,VALID,18.7697,VALID,18,VALID,0,
2013-04-15, 01:30:04,VALID,916.927,VALID,0,VALID,88.7137,VALID,0,VALID,18.7488,VALID,18,VALID,0,
2013-04-15, 01:31:04,VALID,916.914,VALID,0,VALID,88.0733,VALID,0,VALID,18.6889,VALID,339,VALID,0,
2013-04-15, 01:32:04,VALID,916.899,VALID,0,VALID,88.02,VALID,0,VALID,18.7293,VALID,328,VALID,0,
2013-04-15, 01:33:04,VALID,916.891,VALID,0,VALID,87.6464,VALID,0,VALID,18.6528,VALID,328,VALID,0,
2013-04-15, 01:34:04,VALID,916.862,VALID,0,VALID,89.4532,VALID,0,VALID,18.5748,VALID,328,VALID,0,
2013-04-15, 01:35:04,VALID,916.845,VALID,0,VALID,89.8191,VALID,0,VALID,18.4745,VALID,328,VALID,0,
2013-04-15, 01:36:04,VALID,916.835,VALID,0,VALID,89.659,VALID,0,VALID,18.4745,VALID,328,VALID,0,
2013-04-15, 01:37:04,VALID,916.845,VALID,0,VALID,90.3908,VALID,0,VALID,18.5567,VALID,328,VALID,0,
2013-04-15, 01:38:04,VALID,916.784,VALID,0,VALID,90.8025,VALID,0,VALID,18.4926,VALID,328,VALID,0,
2013-04-15, 01:39:04,VALID,916.754,VALID,0,VALID,91.1456,VALID,0,VALID,18.5553,VALID,328,VALID,0,
2013-04-15, 01:40:04,VALID,916.717,VALID,0,VALID,91.5344,VALID,0,VALID,18.5748,VALID,328,VALID,0,
2013-04-15, 01:41:04,VALID,916.713,VALID,0,VALID,91.4886,VALID,0,VALID,18.6166,VALID,328,VALID,0,
2013-04-15, 01:42:04,VALID,916.698,VALID,0,VALID,90.9016,VALID,0,VALID,18.5943,VALID,328,VALID,0,
2013-04-15, 01:43:04,VALID,916.638,VALID,0,VALID,90.5052,VALID,0,VALID,18.6166,VALID,328,VALID,0,
2013-04-15, 01:44:04,VALID,916.646,VALID,0,VALID,90.2231,VALID,0,VALID,18.4745,VALID,328,VALID,0,
2013-04-15, 01:45:04,VALID,916.606,VALID,0,VALID,89.72,VALID,0,VALID,18.5386,VALID,328,VALID,0,
2013-04-15, 01:46:04,VALID,916.606,VALID,0,VALID,89.5599,VALID,0,VALID,18.4564,VALID,328,VALID,0,
2013-04-15, 01:47:04,VALID,916.576,VALID,0,VALID,90.0021,VALID,0,VALID,18.4996,VALID,328,VALID,0,
2013-04-15, 01:48:04,VALID,916.547,VALID,0,VALID,90.4671,VALID,0,VALID,18.416,VALID,328,VALID,0,
2013-04-15, 01:49:04,VALID,916.545,VALID,0,VALID,90.7034,VALID,0,VALID,18.4592,VALID,328,VALID,0,
2013-04-15, 01:50:04,VALID,916.534,VALID,0,VALID,90.0478,VALID,0,VALID,18.4411,VALID,328,VALID,0,
2013-04-15, 01:51:04,VALID,916.486,VALID,0,VALID,89.9487,VALID,0,VALID,18.299,VALID,328,VALID,0,
2013-04-15, 01:52:04,VALID,916.516,VALID,0,VALID,90.6195,VALID,0,VALID,18.2002,VALID,328,VALID,0,
2013-04-15, 01:53:04,VALID,916.497,VALID,0,VALID,90.7796,VALID,0,VALID,18.2211,VALID,328,VALID,0,
2013-04-15, 01:54:04,VALID,916.524,VALID,0,VALID,90.7568,VALID,0,VALID,18.2656,VALID,328,VALID,0,
2013-04-15, 01:55:04,VALID,916.486,VALID,0,VALID,90.6729,VALID,0,VALID,18.2057,VALID,328,VALID,0,
2013-04-15, 01:56:04,VALID,916.455,VALID,0,VALID,91.1227,VALID,0,VALID,18.2016,VALID,328,VALID,0,
2013-04-15, 01:57:04,VALID,916.461,VALID,0,VALID,91.4581,VALID,0,VALID,18.3032,VALID,328,VALID,0,
2013-04-15, 01:58:04,VALID,916.419,VALID,0,VALID,91.5953,VALID,0,VALID,18.3004,VALID,328,VALID,0,
2013-04-15, 01:59:04,VALID,916.409,VALID,0,VALID,91.0465,VALID,0,VALID,18.3018,VALID,328,VALID,0,
2013-04-15, 02:00:04,VALID,916.394,VALID,0,VALID,90.0478,VALID,0,VALID,18.1821,VALID,328,VALID,0,
2013-04-15, 02:01:04,VALID,916.451,VALID,0,VALID,90.2155,VALID,0,VALID,18.1849,VALID,328,VALID,0,
2013-04-15, 02:02:04,VALID,916.417,VALID,0,VALID,90.8254,VALID,0,VALID,18.2071,VALID,328,VALID,0,
2013-04-15, 02:03:04,VALID,916.403,VALID,0,VALID,91.1303,VALID,0,VALID,18.1264,VALID,328,VALID,0,
2013-04-15, 02:04:04,VALID,916.376,VALID,0,VALID,91.7326,VALID,0,VALID,18.0833,VALID,328,VALID,0,
2013-04-15, 02:05:04,VALID,916.38,VALID,0,VALID,90.8635,VALID,0,VALID,18.0457,VALID,328,VALID,0,
2013-04-15, 02:06:04,VALID,916.349,VALID,0,VALID,90.3832,VALID,0,VALID,17.9886,VALID,333,VALID,0,
2013-04-15, 02:07:04,VALID,916.376,VALID,0,VALID,89.7505,VALID,0,VALID,17.8743,VALID,340,VALID,0,
2013-04-15, 02:08:04,VALID,916.396,VALID,0,VALID,90.7796,VALID,0,VALID,17.7587,VALID,357,VALID,0,
2013-04-15, 02:09:04,VALID,916.367,VALID,0,VALID,92.9752,VALID,0,VALID,17.6532,VALID,13,VALID,0,
2013-04-15, 02:10:04,VALID,916.376,VALID,0,VALID,93.425,VALID,0,VALID,17.6754,VALID,1,VALID,0,
2013-04-15, 02:11:04,VALID,916.359,VALID,0,VALID,93.9052,VALID,0,VALID,17.7338,VALID,304,VALID,0,
2013-04-15, 02:12:04,VALID,916.347,VALID,0,VALID,94.4541,VALID,0,VALID,17.8911,VALID,292,VALID,0,
2013-04-15, 02:13:04,VALID,916.322,VALID,0,VALID,94.9192,VALID,0,VALID,17.9899,VALID,292,VALID,0,
2013-04-15, 02:14:04,VALID,916.274,VALID,0,VALID,94.9039,VALID,0,VALID,17.9704,VALID,292,VALID,0,
2013-04-15, 02:15:04,VALID,916.265,VALID,0,VALID,94.8887,VALID,0,VALID,17.9274,VALID,327,VALID,0,
2013-04-15, 02:16:04,VALID,916.267,VALID,0,VALID,94.6523,VALID,0,VALID,17.9704,VALID,327,VALID,0,
2013-04-15, 02:17:04,VALID,916.279,VALID,0,VALID,94.416,VALID,0,VALID,17.9509,VALID,327,VALID,0,
2013-04-15, 02:18:04,VALID,916.279,VALID,0,VALID,94.416,VALID,0,VALID,17.9691,VALID,327,VALID,0,
2013-04-15, 02:19:04,VALID,916.263,VALID,0,VALID,94.3855,VALID,0,VALID,18.0316,VALID,327,VALID,0,
2013-04-15, 02:20:04,VALID,916.284,VALID,0,VALID,94.2635,VALID,0,VALID,18.0289,VALID,327,VALID,0,
2013-04-15, 02:21:04,VALID,916.286,VALID,0,VALID,93.8747,VALID,0,VALID,17.9858,VALID,327,VALID,0,
2013-04-15, 02:22:04,VALID,916.294,VALID,0,VALID,93.4326,VALID,0,VALID,18.0484,VALID,327,VALID,0,
2013-04-15, 02:23:04,VALID,916.261,VALID,0,VALID,93.0895,VALID,0,VALID,18.0665,VALID,327,VALID,0,
2013-04-15, 02:24:04,VALID,916.261,VALID,0,VALID,92.068,VALID,0,VALID,18.0484,VALID,327,VALID,0,
2013-04-15, 02:25:04,VALID,916.209,VALID,0,VALID,91.0617,VALID,0,VALID,17.9691,VALID,327,VALID,0,
2013-04-15, 02:26:04,VALID,916.24,VALID,0,VALID,90.9626,VALID,0,VALID,17.9899,VALID,327,VALID,0,
2013-04-15, 02:27:04,VALID,916.283,VALID,0,VALID,91.1456,VALID,0.107441,VALID,17.887,VALID,327,VALID,0,
2013-04-15, 02:28:04,VALID,916.264,VALID,0,VALID,91.1074,VALID,0.107441,VALID,17.9092,VALID,327,VALID,0,
2013-04-15, 02:29:04,VALID,916.285,VALID,0,VALID,91.7783,VALID,0,VALID,17.9496,VALID,327,VALID,0,
2013-04-15, 02:30:04,VALID,916.259,VALID,0,VALID,91.9231,VALID,0,VALID,17.9468,VALID,327,VALID,0,
2013-04-15, 02:31:04,VALID,916.264,VALID,0,VALID,91.5191,VALID,0,VALID,17.9677,VALID,327,VALID,0,
2013-04-15, 02:32:04,VALID,916.298,VALID,0,VALID,91.1989,VALID,0,VALID,18.0303,VALID,327,VALID,0,
2013-04-15, 02:33:04,VALID,916.278,VALID,0,VALID,91.2066,VALID,0,VALID,18.0316,VALID,327,VALID,0,
2013-04-15, 02:34:04,VALID,916.266,VALID,0,VALID,91.2904,VALID,0,VALID,17.9663,VALID,327,VALID,0,
2013-04-15, 02:35:04,VALID,916.263,VALID,0,VALID,91.5115,VALID,0.107441,VALID,17.965,VALID,327,VALID,0,
2013-04-15, 02:36:04,VALID,916.242,VALID,0,VALID,91.2828,VALID,0,VALID,18.0665,VALID,327,VALID,0,
2013-04-15, 02:37:04,VALID,916.274,VALID,0,VALID,91.0693,VALID,0,VALID,18.0819,VALID,327,VALID,0,
2013-04-15, 02:38:04,VALID,916.281,VALID,0,VALID,90.6348,VALID,0.107441,VALID,18.1807,VALID,327,VALID,0,
2013-04-15, 02:39:04,VALID,916.254,VALID,0,VALID,90.1698,VALID,0.107441,VALID,18.2642,VALID,327,VALID,0,
2013-04-15, 02:40:04,VALID,916.26,VALID,0,VALID,89.9258,VALID,0,VALID,18.2809,VALID,327,VALID,0,
2013-04-15, 02:41:04,VALID,916.28,VALID,0,VALID,89.659,VALID,0,VALID,18.3241,VALID,327,VALID,0,
2013-04-15, 02:42:04,VALID,916.299,VALID,0,VALID,89.2778,VALID,0,VALID,18.2796,VALID,327,VALID,0,
2013-04-15, 02:43:04,VALID,916.33,VALID,0,VALID,88.9881,VALID,0,VALID,18.3812,VALID,327,VALID,0,
2013-04-15, 02:44:04,VALID,916.317,VALID,0,VALID,88.6756,VALID,0,VALID,18.3394,VALID,327,VALID,0,
2013-04-15, 02:45:04,VALID,916.329,VALID,0,VALID,88.5307,VALID,0,VALID,18.4258,VALID,327,VALID,0,
2013-04-15, 02:46:04,VALID,916.329,VALID,0,VALID,87.189,VALID,0,VALID,18.2823,VALID,327,VALID,0,
2013-04-15, 02:47:04,VALID,916.303,VALID,0,VALID,88.5002,VALID,0,VALID,18.2238,VALID,327,VALID,0,
2013-04-15, 02:48:04,VALID,916.309,VALID,0,VALID,89.2626,VALID,0,VALID,18.306,VALID,327,VALID,0,
2013-04-15, 02:49:04,VALID,916.309,VALID,0,VALID,89.7276,VALID,0,VALID,18.2447,VALID,327,VALID,0,
2013-04-15, 02:50:04,VALID,916.331,VALID,0,VALID,89.9563,VALID,0,VALID,18.1681,VALID,327,VALID,0,
2013-04-15, 02:51:04,VALID,916.326,VALID,0,VALID,90.1316,VALID,0,VALID,18.1264,VALID,327,VALID,0,
2013-04-15, 02:52:04,VALID,916.312,VALID,0,VALID,90.4518,VALID,0,VALID,18.1849,VALID,327,VALID,0,
2013-04-15, 02:53:04,VALID,916.304,VALID,0,VALID,90.8483,VALID,0,VALID,18.125,VALID,327,VALID,0,
2013-04-15, 02:54:04,VALID,916.314,VALID,0,VALID,90.6195,VALID,0,VALID,18.1459,VALID,327,VALID,0,
2013-04-15, 02:55:04,VALID,916.311,VALID,0,VALID,90.8864,VALID,0,VALID,18.1654,VALID,327,VALID,0,
2013-04-15, 02:56:04,VALID,916.297,VALID,0,VALID,90.9321,VALID,0,VALID,18.2071,VALID,327,VALID,0,
2013-04-15, 02:57:04,VALID,916.328,VALID,0,VALID,90.7568,VALID,0,VALID,18.1626,VALID,327,VALID,0,
2013-04-15, 02:58:04,VALID,916.35,VALID,0,VALID,90.2079,VALID,0,VALID,18.2837,VALID,327,VALID,0,
2013-04-15, 02:59:04,VALID,916.356,VALID,0,VALID,90.246,VALID,0,VALID,18.2211,VALID,327,VALID,0,
2013-04-15, 03:00:04,VALID,916.363,VALID,0,VALID,90.9169,VALID,0,VALID,18.3812,VALID,327,VALID,0,
2013-04-15, 03:01:04,VALID,916.343,VALID,0,VALID,90.1774,VALID,0,VALID,18.3951,VALID,327,VALID,0,
2013-04-15, 03:02:04,VALID,916.325,VALID,0,VALID,88.9119,VALID,0,VALID,18.3561,VALID,327,VALID,0,
2013-04-15, 03:03:04,VALID,916.295,VALID,0,VALID,88.5765,VALID,0,VALID,18.3784,VALID,327,VALID,0,
2013-04-15, 03:04:04,VALID,916.286,VALID,0,VALID,89.0872,VALID,0,VALID,18.4606,VALID,327,VALID,0,
2013-04-15, 03:05:04,VALID,916.313,VALID,0,VALID,89.5828,VALID,0,VALID,18.4355,VALID,327,VALID,0,
2013-04-15, 03:06:04,VALID,916.284,VALID,0,VALID,89.6666,VALID,0,VALID,18.4968,VALID,327,VALID,0,
2013-04-15, 03:07:04,VALID,916.297,VALID,0,VALID,89.7124,VALID,0,VALID,18.54,VALID,327,VALID,0,
2013-04-15, 03:08:04,VALID,916.317,VALID,0,VALID,89.3922,VALID,0,VALID,18.455,VALID,327,VALID,0,
2013-04-15, 03:09:04,VALID,916.289,VALID,0,VALID,89.415,VALID,0,VALID,18.455,VALID,327,VALID,0,
2013-04-15, 03:10:04,VALID,916.285,VALID,0,VALID,89.2168,VALID,0,VALID,18.4954,VALID,327,VALID,0,
2013-04-15, 03:11:04,VALID,916.297,VALID,0,VALID,89.1177,VALID,0,VALID,18.6152,VALID,327,VALID,0,
2013-04-15, 03:12:04,VALID,916.284,VALID,0,VALID,88.8509,VALID,0.107441,VALID,18.5705,VALID,327,VALID,0,
2013-04-15, 03:13:04,VALID,916.279,VALID,0,VALID,88.7442,VALID,0,VALID,18.7322,VALID,327,VALID,0,
2013-04-15, 03:14:04,VALID,916.289,VALID,0,VALID,88.7061,VALID,0,VALID,18.7322,VALID,327,VALID,0,
2013-04-15, 03:15:04,VALID,916.276,VALID,0,VALID,88.4011,VALID,0.107441,VALID,18.629,VALID,327,VALID,0,
2013-04-15, 03:16:04,VALID,916.317,VALID,0,VALID,88.8967,VALID,0.107441,VALID,18.6513,VALID,327,VALID,0,
2013-04-15, 03:17:04,VALID,916.285,VALID,0,VALID,89.1482,VALID,0.107441,VALID,18.6499,VALID,327,VALID,0,
2013-04-15, 03:18:04,VALID,916.289,VALID,0,VALID,89.1254,VALID,0.107441,VALID,18.6499,VALID,327,VALID,0,
2013-04-15, 03:19:04,VALID,916.319,VALID,0,VALID,88.8128,VALID,0.107441,VALID,18.7488,VALID,327,VALID,0,
2013-04-15, 03:20:04,VALID,916.298,VALID,0,VALID,88.485,VALID,0.107441,VALID,18.7655,VALID,327,VALID,0,
2013-04-15, 03:21:04,VALID,916.271,VALID,0,VALID,88.3173,VALID,0.107441,VALID,18.8254,VALID,327,VALID,0,
2013-04-15, 03:22:04,VALID,916.249,VALID,0,VALID,88.2792,VALID,0,VALID,18.8268,VALID,327,VALID,0,
2013-04-15, 03:23:04,VALID,916.273,VALID,0,VALID,88.2639,VALID,0.107441,VALID,18.8059,VALID,327,VALID,0,
2013-04-15, 03:24:04,VALID,916.24,VALID,0,VALID,88.6527,VALID,0.107441,VALID,18.7308,VALID,327,VALID,0,
2013-04-15, 03:25:04,VALID,916.235,VALID,0,VALID,88.7366,VALID,0.107441,VALID,18.7308,VALID,327,VALID,0,
2013-04-15, 03:26:04,VALID,916.252,VALID,0,VALID,89.1559,VALID,0.107441,VALID,18.6333,VALID,327,VALID,0,
2013-04-15, 03:27:04,VALID,916.24,VALID,0,VALID,89.6209,VALID,0,VALID,18.4968,VALID,327,VALID,0,
2013-04-15, 03:28:04,VALID,916.265,VALID,0,VALID,90.1698,VALID,0,VALID,18.4787,VALID,327,VALID,0,
2013-04-15, 03:29:04,VALID,916.288,VALID,0,VALID,90.3375,VALID,0,VALID,18.4996,VALID,327,VALID,0,
2013-04-15, 03:30:04,VALID,916.265,VALID,0,VALID,89.7962,VALID,0,VALID,18.4369,VALID,327,VALID,0,
2013-04-15, 03:31:04,VALID,916.273,VALID,0,VALID,89.9182,VALID,0,VALID,18.4578,VALID,327,VALID,0,
2013-04-15, 03:32:04,VALID,916.255,VALID,0,VALID,90.0707,VALID,0,VALID,18.4564,VALID,327,VALID,0,
2013-04-15, 03:33:04,VALID,916.276,VALID,0,VALID,90.2003,VALID,0,VALID,18.416,VALID,8,VALID,0,
2013-04-15, 03:34:04,VALID,916.302,VALID,0,VALID,90.246,VALID,0,VALID,18.3784,VALID,8,VALID,0,
2013-04-15, 03:35:04,VALID,916.31,VALID,0,VALID,90.2003,VALID,0,VALID,18.4439,VALID,8,VALID,0,
2013-04-15, 03:36:04,VALID,916.296,VALID,0,VALID,90.6195,VALID,0,VALID,18.299,VALID,8,VALID,0,
2013-04-15, 03:37:04,VALID,916.297,VALID,0,VALID,90.6577,VALID,0,VALID,18.3018,VALID,8,VALID,0,
2013-04-15, 03:38:04,VALID,916.272,VALID,0,VALID,91.2447,VALID,0,VALID,18.3018,VALID,8,VALID,0,
2013-04-15, 03:39:04,VALID,916.298,VALID,0,VALID,91.298,VALID,0,VALID,18.2823,VALID,8,VALID,0,
2013-04-15, 03:40:04,VALID,916.285,VALID,0,VALID,91.4352,VALID,0,VALID,18.3826,VALID,8,VALID,0,
2013-04-15, 03:41:04,VALID,916.288,VALID,0,VALID,91.0541,VALID,0,VALID,18.338,VALID,8,VALID,0,
2013-04-15, 03:42:04,VALID,916.309,VALID,0,VALID,90.7796,VALID,0,VALID,18.3993,VALID,8,VALID,0,
2013-04-15, 03:43:04,VALID,916.29,VALID,0,VALID,90.4747,VALID,0,VALID,18.3784,VALID,8,VALID,0,
2013-04-15, 03:44:04,VALID,916.275,VALID,0,VALID,90.6805,VALID,0,VALID,18.5191,VALID,8,VALID,0,
2013-04-15, 03:45:04,VALID,916.297,VALID,0,VALID,90.7339,VALID,0,VALID,18.5776,VALID,8,VALID,0,
2013-04-15, 03:46:04,VALID,916.31,VALID,0,VALID,90.2308,VALID,0,VALID,18.6347,VALID,8,VALID,0,
2013-04-15, 03:47:04,VALID,916.298,VALID,0,VALID,90.124,VALID,0,VALID,18.5914,VALID,8,VALID,0,
2013-04-15, 03:48:04,VALID,916.292,VALID,0,VALID,89.9411,VALID,0,VALID,18.6946,VALID,8,VALID,0,
2013-04-15, 03:49:04,VALID,916.293,VALID,0,VALID,89.8725,VALID,0,VALID,18.6542,VALID,8,VALID,0,
2013-04-15, 03:50:04,VALID,916.293,VALID,0,VALID,89.8115,VALID,0,VALID,18.6513,VALID,8,VALID,0,
2013-04-15, 03:51:04,VALID,916.265,VALID,0,VALID,89.5446,VALID,0,VALID,18.6889,VALID,8,VALID,0,
2013-04-15, 03:52:04,VALID,916.293,VALID,0,VALID,89.5294,VALID,0,VALID,18.629,VALID,8,VALID,0,
2013-04-15, 03:53:04,VALID,916.268,VALID,0,VALID,89.5675,VALID,0,VALID,18.7127,VALID,8,VALID,0,
2013-04-15, 03:54:04,VALID,916.241,VALID,0,VALID,89.2168,VALID,0,VALID,18.7697,VALID,8,VALID,0,
2013-04-15, 03:55:04,VALID,916.27,VALID,0,VALID,88.7518,VALID,0,VALID,18.7322,VALID,8,VALID,0,
2013-04-15, 03:56:04,VALID,916.285,VALID,0,VALID,89.2397,VALID,0,VALID,18.6918,VALID,8,VALID,0,
2013-04-15, 03:57:04,VALID,916.296,VALID,0,VALID,89.6209,VALID,0,VALID,18.6875,VALID,8,VALID,0,
2013-04-15, 03:58:04,VALID,916.291,VALID,0,VALID,89.7047,VALID,0,VALID,18.7517,VALID,8,VALID,0,
2013-04-15, 03:59:04,VALID,916.336,VALID,0,VALID,89.6895,VALID,0,VALID,18.7683,VALID,8,VALID,0,